QPF
0.03 0.03 0.04 0.06 0.04 0.03 0.02 0.02 0.02 0.02 0.01 0.01 0.01 0.01 0.01 0.01 0.01 0.02 0.02 0.02 0.05 0.06 0.05 0.04 0.03 0.02 0.02 0.02 0.02 0.03 0.04 0.05 0.07 0.08 0.09 0.11 0.12 0.11 0.11 0.09 0.09 0.09 0.09
0.03 0.03 0.02 0.04 0.04 0.03 0.02 0.02 0.01 0.01 0.01 0.01 0.01 0.01 0.01 0.01 0.01 0.02 0.02 0.03 0.05 0.08 0.09 0.08 0.05 0.04 0.03 0.03 0.03 0.03 0.03 0.04 0.06 0.08 0.10 0.11 0.12 0.13 0.12 0.10 0.08 0.07 0.08
0.02 0.02 0.02 0.01 0.02 0.02 0.01 0.01 0.01 0.01 0.01 0.01 0.01 0.01 0.02 0.02 0.02 0.01 0.01 0.02 0.05 0.08 0.09 0.10 0.08 0.07 0.05 0.04 0.04 0.04 0.05 0.06 0.07 0.08 0.11 0.13 0.14 0.14 0.13 0.11 0.09 0.09 0.09
0.01 0.01 0.01 0.01 0.01 0.02 0.01 0.01 0.00 0.00 0.01 0.00 0.00 0.01 0.02 0.02 0.02 0.01 0.01 0.01 0.03 0.05 0.07 0.10 0.10 0.09 0.08 0.07 0.06 0.05 0.06 0.06 0.07 0.08 0.11 0.13 0.14 0.13 0.11 0.11 0.11 0.09 0.09
0.00 0.01 0.01 0.00 0.01 0.01 0.01 0.00 0.00 0.00 0.01 0.01 0.00 0.01 0.02 0.03 0.02 0.01 0.01 0.01 0.01 0.03 0.04 0.06 0.09 0.10 0.09 0.08 0.08 0.07 0.06 0.06 0.06 0.07 0.08 0.10 0.10 0.10 0.09 0.08 0.08 0.07 0.07
0.01 0.01 0.00 0.00 0.01 0.01 0.00 0.00 0.00 0.00 0.01 0.01 0.01 0.01 0.02 0.03 0.04 0.03 0.02 0.01 0.01 0.02 0.02 0.04 0.06 0.08 0.10 0.08 0.08 0.08 0.07 0.06 0.06 0.06 0.06 0.06 0.06 0.06 0.06 0.06 0.06 0.05 0.06
0.00 0.00 0.00 0.00 0.01 0.00 0.00 0.00 0.00 0.00 0.00 0.01 0.01 0.01 0.02 0.04 0.04 0.03 0.02 0.02 0.02 0.02 0.02 0.03 0.04 0.06 0.08 0.06 0.06 0.07 0.08 0.08 0.07 0.07 0.06 0.05 0.04 0.04 0.04 0.05 0.05 0.05 0.04
0.00 0.00 0.00 0.00 0.00 0.00 0.00 0.01 0.00 0.00 0.00 0.01 0.01 0.02 0.02 0.03 0.03 0.03 0.03 0.02 0.02 0.02 0.02 0.02 0.03 0.04 0.06 0.05 0.05 0.05 0.05 0.06 0.06 0.05 0.05 0.04 0.03 0.03 0.02 0.02 0.03 0.04 0.05
0.01 0.00 0.00 0.00 0.00 0.00 0.00 0.01 0.01 0.01 0.01 0.01 0.01 0.02 0.02 0.03 0.04 0.04 0.04 0.03 0.03 0.02 0.02 0.03 0.03 0.02 0.04 0.05 0.04 0.04 0.03 0.03 0.04 0.05 0.04 0.03 0.02 0.01 0.01 0.00 0.01 0.02 0.03
0.01 0.01 0.00 0.00 0.00 0.00 0.00 0.01 0.01 0.01 0.01 0.01 0.03 0.03 0.03 0.04 0.04 0.04 0.03 0.03 0.03 0.02 0.02 0.02 0.02 0.02 0.02 0.03 0.03 0.03 0.02 0.02 0.02 0.02 0.01 0.01 0.01 0.00 0.00 0.00 0.00 0.01 0.01
0.01 0.01 0.01 0.01 0.01 0.01 0.00 0.00 0.00 0.01 0.01 0.02 0.03 0.04 0.05 0.06 0.05 0.03 0.02 0.02 0.02 0.01 0.01 0.01 0.01 0.01 0.02 0.02 0.02 0.02 0.02 0.01 0.01 0.01 0.01 0.01 0.00 0.00 0.00 0.00 0.00 0.00 0.01
0.00 0.00 0.01 0.01 0.01 0.01 0.00 0.00 0.00 0.00 0.01 0.03 0.03 0.03 0.03 0.03 0.02 0.02 0.02 0.02 0.01 0.00 0.00 0.00 0.01 0.01 0.02 0.02 0.02 0.01 0.01 0.01 0.01 0.00 0.00 0.00 0.00 0.00 0.00 0.00 0.00 0.00 0.00
0.00 0.00 0.00 0.00 0.01 0.01 0.01 0.00 0.00 0.00 0.01 0.02 0.03 0.03 0.02 0.01 0.01 0.01 0.01 0.01 0.00 0.00 0.00 0.00 0.00 0.00 0.01 0.01 0.01 0.01 0.00 0.00 0.00 0.00 0.00 0.00 0.00 0.00 0.00 0.01 0.01 0.01 0.01
0.01 0.01 0.00 0.01 0.01 0.01 0.01 0.01 0.01 0.01 0.01 0.01 0.03 0.03 0.02 0.01 0.01 0.01 0.00 0.00 0.00 0.00 0.00 0.00 0.00 0.00 0.01 0.01 0.01 0.01 0.00 0.00 0.00 0.00 0.00 0.00 0.00 0.00 0.00 0.01 0.01 0.01 0.01
0.01 0.01 0.01 0.01 0.01 0.01 0.01 0.01 0.01 0.01 0.01 0.00 0.01 0.01 0.01 0.01 0.00 0.00 0.00 0.00 0.00 0.00 0.00 0.00 0.00 0.00 0.00 0.00 0.00 0.01 0.01 0.01 0.01 0.01 0.01 0.01 0.00 0.00 0.00 0.01 0.00 0.00 0.00
0.00 0.01 0.00 0.00 0.00 0.00 0.01 0.01 0.01 0.01 0.00 0.00 0.00 0.00 0.00 0.00 0.00 0.00 0.00 0.00 0.00 0.00 0.00 0.00 0.00 0.00 0.00 0.00 0.00 0.00 0.00 0.01 0.01 0.01 0.01 0.01 0.00 0.00 0.00 0.00 0.00 0.00 0.00
0.00 0.01 0.00 0.00 0.00 0.00 0.00 0.01 0.00 0.00 0.00 0.00 0.00 0.00 0.00 0.00 0.00 0.00 0.00 0.00 0.00 0.00 0.00 0.00 0.00 0.00 0.00 0.00 0.00 0.01 0.00 0.00 0.00 0.00 0.00 0.00 0.00 0.00 0.00 0.00 0.00 0.00 0.00
0.00 0.00 0.00 0.00 0.00 0.00 0.00 0.00 0.00 0.00 0.00 0.00 0.00 0.00 0.00 0.00 0.00 0.00 0.00 0.00 0.00 0.00 0.00 0.00 0.00 0.00 0.00 0.00 0.00 0.00 0.00 0.00 0.00 0.00 0.00 0.00 0.00 0.00 0.00 0.00 0.00 0.00 0.00
0.00 0.00 0.00 0.00 0.00 0.00 0.00 0.00 0.00 0.00 0.00 0.00 0.00 0.00 0.00 0.00 0.00 0.00 0.00 0.00 0.00 0.00 0.00 0.00 0.00 0.00 0.00 0.00 0.00 0.00 0.00 0.00 0.00 0.00 0.00 0.00 0.00 0.00 0.00 0.00 0.00 0.00 0.00
0.00 0.00 0.00 0.00 0.00 0.00 0.00 0.00 0.00 0.00 0.00 0.00 0.00 0.00 0.00 0.00 0.00 0.00 0.00 0.00 0.00 0.00 0.00 0.00 0.00 0.00 0.00 0.00 0.00 0.00 0.00 0.00 0.00 0.00 0.00 0.00 0.00 0.00 0.00 0.00 0.00 0.00 0.00
0.00 0.00 0.00 0.00 0.00 0.00 0.00 0.00 0.00 0.00 0.00 0.00 0.00 0.00 0.00 0.00 0.00 0.00 0.00 0.00 0.00 0.00 0.00 0.00 0.00 0.00 0.00 0.00 0.00 0.00 0.00 0.00 0.00 0.00 0.00 0.00 0.00 0.00 0.00 0.00 0.00 0.00 0.00
0.00 0.00 0.00 0.00 0.00 0.00 0.00 0.00 0.00 0.00 0.00 0.00 0.00 0.00 0.00 0.00 0.00 0.00 0.00 0.00 0.00 0.00 0.00 0.00 0.00 0.00 0.00 0.00 0.00 0.00 0.00 0.00 0.00 0.00 0.00 0.00 0.00 0.00 0.00 0.00 0.00 0.00 0.00
0.00 0.00 0.00 0.00 0.00 0.00 0.00 0.00 0.00 0.00 0.00 0.00 0.00 0.00 0.00 0.00 0.00 0.00 0.00 0.00 0.00 0.00 0.00 0.00 0.00 0.00 0.00 0.00 0.00 0.00 0.00 0.00 0.00 0.00 0.00 0.00 0.00 0.00 0.00 0.00 0.00 0.00 0.00
0.00 0.00 0.00 0.00 0.00 0.00 0.00 0.00 0.00 0.00 0.00 0.00 0.00 0.00 0.00 0.00 0.00 0.00 0.00 0.00 0.00 0.00 0.00 0.00 0.00 0.00 0.00 0.00 0.00 0.00 0.00 0.00 0.00 0.00 0.00 0.00 0.00 0.00 0.00 0.00 0.00 0.00 0.00
0.00 0.00 0.00 0.00 0.00 0.00 0.00 0.00 0.00 0.00 0.00 0.00 0.00 0.00 0.00 0.00 0.00 0.00 0.00 0.00 0.00 0.00 0.00 0.00 0.00 0.00 0.00 0.00 0.00 0.00 0.00 0.00 0.00 0.00 0.00 0.00 0.00 0.00 0.00 0.00 0.00 0.00 0.00
0.00 0.00 0.00 0.00 0.00 0.00 0.00 0.00 0.00 0.00 0.00 0.00 0.00 0.00 0.00 0.00 0.00 0.00 0.00 0.00 0.00 0.00 0.00 0.00 0.00 0.00 0.00 0.00 0.00 0.00 0.00 0.00 0.00 0.00 0.00 0.00 0.00 0.00 0.00 0.00 0.00 0.00 0.00
MSLP
1024.38 1024.13 1023.85 1023.54 1023.21 1022.84 1022.45 1022.02 1021.58 1021.12 1020.65 1020.18 1019.71 1019.25 1018.79 1018.35 1017.95 1017.58 1017.27 1017.03 1016.86 1016.75 1016.71 1016.74 1016.82 1016.96 1017.16 1017.43 1017.77 1018.19 1018.67 1019.22 1019.80 1020.40 1020.97 1021.50 1021.97 1022.36 1022.68 1022.95 1023.19 1023.42 1023.68
1024.51 1024.23 1023.93 1023.60 1023.26 1022.89 1022.50 1022.10 1021.68 1021.25 1020.82 1020.38 1019.93 1019.48 1019.03 1018.60 1018.19 1017.81 1017.49 1017.23 1017.04 1016.91 1016.84 1016.84 1016.89 1017.00 1017.17 1017.43 1017.76 1018.19 1018.71 1019.31 1019.96 1020.65 1021.33 1021.97 1022.54 1023.02 1023.41 1023.72 1023.96 1024.17 1024.37
1024.64 1024.35 1024.04 1023.71 1023.36 1023.00 1022.63 1022.25 1021.86 1021.47 1021.07 1020.66 1020.23 1019.80 1019.37 1018.94 1018.53 1018.15 1017.83 1017.57 1017.37 1017.23 1017.16 1017.14 1017.18 1017.27 1017.43 1017.66 1017.99 1018.41 1018.92 1019.53 1020.22 1020.94 1021.66 1022.35 1022.97 1023.50 1023.92 1024.24 1024.48 1024.66 1024.81
1024.79 1024.50 1024.19 1023.87 1023.54 1023.19 1022.85 1022.50 1022.15 1021.79 1021.43 1021.05 1020.65 1020.24 1019.82 1019.40 1019.00 1018.64 1018.32 1018.06 1017.87 1017.74 1017.67 1017.65 1017.68 1017.77 1017.91 1018.12 1018.42 1018.81 1019.30 1019.87 1020.53 1021.23 1021.94 1022.62 1023.24 1023.77 1024.19 1024.50 1024.73 1024.88 1024.99
1024.97 1024.69 1024.39 1024.08 1023.76 1023.44 1023.13 1022.82 1022.51 1022.20 1021.88 1021.55 1021.18 1020.80 1020.40 1020.00 1019.61 1019.26 1018.95 1018.70 1018.52 1018.40 1018.34 1018.33 1018.36 1018.44 1018.56 1018.75 1019.01 1019.35 1019.77 1020.28 1020.87 1021.50 1022.15 1022.77 1023.34 1023.83 1024.23 1024.52 1024.72 1024.86 1024.94
1025.18 1024.91 1024.62 1024.32 1024.02 1023.73 1023.45 1023.19 1022.93 1022.67 1022.41 1022.12 1021.80 1021.46 1021.09 1020.71 1020.34 1019.99 1019.69 1019.45 1019.28 1019.17 1019.11 1019.11 1019.14 1019.21 1019.32 1019.47 1019.68 1019.96 1020.30 1020.72 1021.21 1021.74 1022.29 1022.82 1023.32 1023.75 1024.10 1024.37 1024.55 1024.67 1024.75
1025.40 1025.14 1024.85 1024.57 1024.29 1024.03 1023.79 1023.57 1023.37 1023.17 1022.97 1022.74 1022.47 1022.17 1021.83 1021.48 1021.13 1020.79 1020.50 1020.27 1020.09 1019.99 1019.93 1019.93 1019.96 1020.02 1020.11 1020.23 1020.39 1020.59 1020.86 1021.18 1021.55 1021.97 1022.40 1022.84 1023.24 1023.60 1023.90 1024.13 1024.30 1024.42 1024.50
1025.62 1025.36 1025.09 1024.81 1024.55 1024.32 1024.12 1023.96 1023.81 1023.68 1023.53 1023.36 1023.15 1022.89 1022.60 1022.27 1021.94 1021.61 1021.32 1021.09 1020.91 1020.80 1020.74 1020.73 1020.75 1020.80 1020.87 1020.96 1021.08 1021.22 1021.41 1021.64 1021.91 1022.22 1022.55 1022.88 1023.19 1023.48 1023.72 1023.92 1024.07 1024.18 1024.27
1025.84 1025.59 1025.32 1025.06 1024.82 1024.62 1024.46 1024.33 1024.24 1024.17 1024.08 1023.97 1023.81 1023.60 1023.34 1023.04 1022.72 1022.40 1022.11 1021.87 1021.68 1021.56 1021.49 1021.46 1021.48 1021.52 1021.57 1021.65 1021.73 1021.84 1021.97 1022.13 1022.32 1022.53 1022.77 1023.00 1023.24 1023.45 1023.64 1023.80 1023.92 1024.03 1024.10
1026.05 1025.81 1025.56 1025.31 1025.10 1024.92 1024.80 1024.72 1024.67 1024.64 1024.60 1024.54 1024.42 1024.25 1024.02 1023.75 1023.45 1023.14 1022.85 1022.59 1022.39 1022.25 1022.17 1022.13 1022.14 1022.17 1022.22 1022.28 1022.35 1022.43 1022.53 1022.64 1022.77 1022.92 1023.08 1023.24 1023.40 1023.55 1023.68 1023.79 1023.89 1023.97 1024.03
1026.26 1026.04 1025.81 1025.59 1025.40 1025.25 1025.16 1025.11 1025.09 1025.10 1025.09 1025.06 1024.98 1024.84 1024.64 1024.39 1024.10 1023.80 1023.51 1023.25 1023.04 1022.88 1022.78 1022.73 1022.72 1022.75 1022.80 1022.86 1022.92 1023.00 1023.08 1023.17 1023.27 1023.37 1023.48 1023.58 1023.68 1023.76 1023.84 1023.90 1023.95 1023.99 1024.02
1026.46 1026.28 1026.08 1025.89 1025.73 1025.61 1025.54 1025.51 1025.51 1025.53 1025.55 1025.53 1025.47 1025.35 1025.17 1024.94 1024.67 1024.38 1024.10 1023.84 1023.62 1023.45 1023.34 1023.28 1023.26 1023.28 1023.32 1023.38 1023.45 1023.53 1023.61 1023.69 1023.76 1023.84 1023.91 1023.96 1024.01 1024.04 1024.05 1024.06 1024.06 1024.05 1024.04
1026.64 1026.51 1026.36 1026.21 1026.08 1025.98 1025.93 1025.91 1025.92 1025.94 1025.95 1025.94 1025.88 1025.77 1025.61 1025.40 1025.15 1024.88 1024.61 1024.36 1024.14 1023.97 1023.85 1023.77 1023.74 1023.75 1023.78 1023.84 1023.91 1023.98 1024.06 1024.14 1024.21 1024.27 1024.31 1024.33 1024.33 1024.31 1024.27 1024.22 1024.16 1024.10 1024.04
1026.80 1026.71 1026.61 1026.51 1026.41 1026.34 1026.29 1026.27 1026.27 1026.28 1026.28 1026.25 1026.19 1026.09 1025.94 1025.75 1025.52 1025.28 1025.03 1024.80 1024.60 1024.43 1024.30 1024.22 1024.17 1024.16 1024.17 1024.22 1024.27 1024.34 1024.42 1024.49 1024.55 1024.59 1024.61 1024.61 1024.57 1024.51 1024.43 1024.32 1024.21 1024.10 1023.99
1026.90 1026.87 1026.82 1026.77 1026.70 1026.65 1026.61 1026.57 1026.55 1026.53 1026.50 1026.45 1026.38 1026.27 1026.13 1025.97 1025.77 1025.57 1025.36 1025.16 1024.98 1024.82 1024.69 1024.60 1024.53 1024.49 1024.48 1024.50 1024.53 1024.58 1024.64 1024.70 1024.74 1024.78 1024.78 1024.76 1024.70 1024.61 1024.49 1024.35 1024.19 1024.04 1023.88
1026.94 1026.96 1026.96 1026.94 1026.91 1026.87 1026.82 1026.77 1026.72 1026.66 1026.59 1026.52 1026.43 1026.32 1026.19 1026.05 1025.89 1025.73 1025.57 1025.41 1025.26 1025.12 1025.00 1024.89 1024.81 1024.74 1024.70 1024.68 1024.67 1024.69 1024.72 1024.76 1024.79 1024.81 1024.81 1024.78 1024.71 1024.60 1024.46 1024.30 1024.11 1023.92 1023.74
1026.90 1026.97 1027.01 1027.02 1027.01 1026.97 1026.91 1026.84 1026.75 1026.65 1026.55 1026.44 1026.33 1026.22 1026.10 1025.99 1025.88 1025.77 1025.66 1025.55 1025.44 1025.32 1025.21 1025.10 1024.99 1024.90 1024.81 1024.75 1024.71 1024.69 1024.69 1024.71 1024.72 1024.73 1024.73 1024.69 1024.62 1024.51 1024.37 1024.19 1023.99 1023.78 1023.56
1026.81 1026.90 1026.97 1027.00 1027.00 1026.96 1026.88 1026.78 1026.66 1026.52 1026.38 1026.24 1026.11 1025.99 1025.89 1025.81 1025.74 1025.68 1025.62 1025.56 1025.49 1025.41 1025.31 1025.20 1025.08 1024.96 1024.85 1024.75 1024.67 1024.61 1024.58 1024.57 1024.57 1024.57 1024.57 1024.54 1024.47 1024.37 1024.23 1024.06 1023.85 1023.62 1023.37
1026.66 1026.77 1026.85 1026.89 1026.88 1026.83 1026.74 1026.61 1026.45 1026.27 1026.10 1025.93 1025.78 1025.66 1025.57 1025.52 1025.49 1025.47 1025.47 1025.45 1025.43 1025.38 1025.30 1025.20 1025.08 1024.94 1024.80 1024.67 1024.56 1024.48 1024.42 1024.39 1024.38 1024.37 1024.37 1024.34 1024.28 1024.19 1024.06 1023.88 1023.67 1023.42 1023.14
1026.48 1026.59 1026.66 1026.70 1026.69 1026.62 1026.50 1026.35 1026.16 1025.95 1025.74 1025.55 1025.39 1025.27 1025.19 1025.16 1025.16 1025.18 1025.21 1025.24 1025.25 1025.24 1025.18 1025.09 1024.97 1024.83 1024.68 1024.53 1024.40 1024.29 1024.22 1024.17 1024.15 1024.14 1024.13 1024.11 1024.05 1023.96 1023.83 1023.64 1023.41 1023.14 1022.82
1026.27 1026.36 1026.43 1026.46 1026.43 1026.35 1026.21 1026.03 1025.82 1025.59 1025.36 1025.15 1024.98 1024.86 1024.78 1024.76 1024.78 1024.82 1024.89 1024.94 1024.98 1024.98 1024.95 1024.87 1024.76 1024.62 1024.47 1024.31 1024.17 1024.06 1023.97 1023.91 1023.88 1023.86 1023.84 1023.81 1023.74 1023.64 1023.49 1023.29 1023.03 1022.72 1022.36
1026.03 1026.11 1026.16 1026.17 1026.13 1026.04 1025.89 1025.69 1025.46 1025.22 1024.98 1024.76 1024.58 1024.45 1024.37 1024.35 1024.37 1024.43 1024.50 1024.57 1024.61 1024.63 1024.60 1024.54 1024.43 1024.30 1024.15 1023.99 1023.85 1023.73 1023.64 1023.57 1023.52 1023.49 1023.45 1023.40 1023.31 1023.18 1023.00 1022.77 1022.47 1022.11 1021.70
1025.75 1025.82 1025.86 1025.86 1025.81 1025.70 1025.55 1025.35 1025.11 1024.86 1024.61 1024.39 1024.20 1024.06 1023.98 1023.94 1023.96 1024.00 1024.06 1024.12 1024.16 1024.17 1024.14 1024.07 1023.97 1023.84 1023.69 1023.54 1023.40 1023.28 1023.18 1023.10 1023.04 1022.98 1022.92 1022.83 1022.71 1022.54 1022.32 1022.04 1021.70 1021.29 1020.83
1025.40 1025.47 1025.51 1025.50 1025.45 1025.35 1025.19 1024.99 1024.76 1024.51 1024.27 1024.04 1023.85 1023.70 1023.60 1023.55 1023.53 1023.55 1023.58 1023.61 1023.62 1023.61 1023.56 1023.48 1023.37 1023.23 1023.09 1022.94 1022.80 1022.68 1022.57 1022.48 1022.40 1022.32 1022.22 1022.10 1021.93 1021.72 1021.45 1021.12 1020.74 1020.29 1019.79
1024.96 1025.04 1025.08 1025.09 1025.05 1024.95 1024.81 1024.62 1024.40 1024.16 1023.92 1023.70 1023.50 1023.34 1023.22 1023.15 1023.10 1023.08 1023.07 1023.05 1023.02 1022.97 1022.89 1022.78 1022.65 1022.50 1022.35 1022.20 1022.06 1021.93 1021.82 1021.72 1021.62 1021.51 1021.39 1021.23 1021.02 1020.77 1020.46 1020.09 1019.66 1019.19 1018.67
1024.40 1024.51 1024.57 1024.60 1024.57 1024.49 1024.37 1024.20 1023.99 1023.77 1023.54 1023.33 1023.13 1022.96 1022.83 1022.72 1022.64 1022.58 1022.52 1022.45 1022.37 1022.27 1022.15 1022.00 1021.85 1021.68 1021.51 1021.36 1021.21 1021.08 1020.97 1020.86 1020.74 1020.62 1020.47 1020.28 1020.05 1019.76 1019.42 1019.03 1018.59 1018.10 1017.58
Thickness
5584 5582 5580 5578 5576 5575 5574 5572 5572 5572 5572 5573 5574 5575 5576 5578 5580 5582 5584 5586 5589 5591 5594 5597 5599 5601 5603 5605 5607 5608 5608 5608 5604 5598 5597 5597 5598 5598 5597 5597 5596 5595 5594
5577 5574 5572 5569 5568 5566 5565 5563 5563 5563 5563 5563 5564 5565 5566 5568 5570 5572 5574 5575 5578 5580 5583 5587 5589 5591 5593 5595 5596 5597 5598 5598 5597 5592 5588 5587 5587 5587 5586 5586 5585 5584 5583
5569 5566 5563 5561 5560 5557 5555 5555 5555 5554 5554 5554 5555 5555 5556 5558 5559 5561 5563 5565 5567 5570 5573 5576 5578 5581 5583 5585 5586 5587 5588 5588 5587 5585 5580 5578 5577 5576 5576 5575 5575 5573 5573
5562 5558 5555 5553 5551 5550 5548 5548 5547 5546 5545 5545 5546 5546 5547 5548 5550 5552 5554 5556 5558 5560 5563 5566 5569 5571 5573 5575 5577 5578 5578 5578 5576 5575 5572 5569 5568 5566 5566 5566 5564 5564 5563
5556 5552 5548 5546 5545 5543 5542 5541 5540 5539 5538 5537 5537 5538 5539 5540 5541 5542 5544 5547 5549 5551 5554 5556 5559 5563 5565 5567 5569 5569 5570 5569 5567 5565 5563 5561 5559 5558 5557 5556 5556 5555 5554
5550 5546 5543 5541 5539 5537 5535 5534 5533 5532 5531 5530 5530 5530 5531 5531 5532 5534 5536 5537 5539 5542 5544 5548 5551 5553 5555 5557 5559 5560 5561 5561 5559 5558 5555 5553 5551 5550 5549 5549 5549 5549 5548
5544 5541 5538 5536 5534 5532 5530 5528 5527 5525 5524 5524 5523 5523 5523 5523 5525 5526 5528 5529 5531 5533 5535 5539 5543 5545 5547 5548 5550 5551 5551 5551 5551 5550 5548 5546 5545 5544 5543 5543 5542 5541 5540
5539 5536 5533 5531 5528 5526 5525 5523 5521 5520 5519 5518 5517 5517 5518 5518 5519 5520 5521 5523 5524 5526 5528 5531 5534 5536 5538 5541 5542 5542 5542 5542 5542 5542 5541 5540 5539 5538 5538 5537 5536 5534 5533
5534 5531 5529 5526 5524 5522 5520 5518 5517 5515 5514 5513 5513 5512 5513 5513 5514 5515 5517 5518 5519 5520 5522 5525 5527 5529 5531 5534 5535 5535 5534 5533 5534 5534 5535 5535 5534 5534 5533 5533 5531 5532 5531
5530 5528 5525 5523 5520 5518 5516 5514 5513 5512 5510 5510 5509 5508 5508 5508 5510 5512 5513 5515 5515 5516 5517 5519 5522 5524 5526 5528 5529 5529 5528 5527 5528 5529 5530 5530 5530 5529 5529 5529 5528 5528 5527
5527 5524 5522 5520 5517 5515 5513 5512 5510 5509 5508 5507 5506 5505 5505 5505 5507 5509 5510 5511 5512 5512 5514 5516 5517 5520 5522 5523 5524 5524 5524 5524 5524 5525 5525 5526 5526 5526 5526 5525 5524 5524 5524
5524 5522 5519 5517 5516 5514 5512 5510 5508 5507 5506 5505 5504 5504 5504 5504 5505 5507 5508 5509 5510 5511 5512 5513 5515 5518 5520 5521 5522 5522 5522 5523 5523 5523 5524 5524 5524 5524 5523 5523 5523 5522 5522
5522 5519 5517 5515 5513 5512 5510 5509 5507 5506 5505 5504 5504 5503 5503 5503 5505 5506 5507 5509 5510 5511 5512 5514 5516 5518 5519 5520 5521 5522 5522 5523 5523 5523 5523 5522 5522 5521 5522 5522 5523 5522 5522
5521 5518 5516 5514 5512 5511 5510 5509 5507 5506 5506 5505 5505 5504 5503 5504 5505 5506 5508 5509 5511 5513 5514 5516 5517 5519 5520 5520 5521 5522 5522 5522 5522 5522 5522 5522 5522 5522 5522 5522 5522 5522 5522
5520 5518 5515 5513 5512 5511 5510 5509 5509 5508 5507 5507 5506 5506 5506 5507 5507 5508 5510 5512 5513 5514 5516 5518 5519 5520 5521 5521 5522 5522 5523 5523 5523 5523 5523 5523 5523 5523 5523 5522 5521 5521 5521
5521 5518 5516 5514 5513 5512 5511 5511 5512 5512 5512 5512 5511 5510 5510 5511 5512 5513 5515 5516 5517 5518 5519 5519 5520 5521 5522 5523 5524 5525 5525 5525 5525 5525 5525 5525 5524 5524 5524 5523 5522 5521 5521
5523 5521 5518 5517 5516 5515 5514 5514 5514 5516 5517 5517 5517 5516 5516 5517 5518 5519 5520 5520 5521 5522 5522 5522 5523 5524 5525 5525 5526 5527 5527 5527 5527 5527 5527 5527 5526 5526 5525 5525 5524 5523 5522
5526 5524 5522 5521 5520 5519 5518 5518 5518 5518 5520 5521 5522 5523 5523 5523 5524 5525 5525 5526 5526 5526 5526 5527 5528 5529 5529 5530 5530 5530 5531 5531 5531 5530 5530 5529 5529 5528 5527 5527 5526 5524 5523
5530 5528 5527 5525 5524 5524 5524 5524 5524 5524 5524 5525 5526 5528 5529 5530 5530 5531 5531 5530 5531 5532 5533 5533 5533 5534 5534 5535 5535 5535 5535 5535 5534 5534 5533 5533 5532 5530 5530 5529 5528 5525 5524
5534 5534 5532 5531 5531 5530 5530 5530 5530 5530 5531 5531 5532 5534 5534 5535 5536 5537 5536 5536 5537 5538 5539 5539 5540 5540 5540 5541 5540 5540 5540 5539 5538 5538 5537 5536 5535 5533 5532 5531 5530 5529 5527
5540 5539 5539 5538 5537 5537 5537 5537 5537 5537 5538 5539 5540 5541 5541 5541 5542 5543 5544 5544 5544 5545 5546 5546 5547 5547 5547 5547 5546 5546 5545 5544 5543 5542 5541 5540 5538 5537 5535 5534 5532 5531 5529
5545 5544 5543 5543 5543 5543 5543 5544 5544 5544 5545 5546 5548 5549 5549 5548 5549 5550 5551 5552 5553 5553 5553 5553 5553 5554 5554 5553 5552 5551 5550 5550 5549 5547 5545 5544 5542 5540 5539 5537 5535 5533 5531
5551 5550 5549 5549 5549 5549 5550 5550 5551 5551 5552 5553 5554 5556 5556 5556 5557 5558 5559 5560 5560 5560 5560 5560 5559 5560 5560 5559 5558 5556 5556 5555 5554 5552 5550 5548 5546 5544 5542 5540 5538 5536 5534
5557 5557 5556 5556 5556 5556 5556 5557 5557 5558 5559 5560 5561 5562 5563 5563 5564 5565 5566 5566 5567 5567 5567 5566 5566 5566 5566 5565 5564 5563 5562 5561 5559 5556 5553 5551 5549 5547 5544 5542 5540 5538 5535
5563 5563 5562 5562 5562 5562 5563 5564 5564 5565 5566 5567 5567 5569 5570 5570 5571 5572 5572 5573 5573 5573 5573 5573 5572 5572 5572 5571 5570 5569 5567 5565 5562 5559 5556 5553 5551 5548 5546 5543 5541 5539 5536
5569 5569 5569 5568 5568 5568 5569 5570 5571 5572 5572 5573 5574 5575 5576 5576 5577 5578 5579 5579 5579 5579 5579 5579 5579 5578 5577 5576 5575 5573 5571 5569 5566 5562 5558 5555 5552 5550 5547 5544 5542 5539 5536